Location: Banios
(43.0451°N, 0.2335°E)
Time: 09:21:18
(UTC+00:00)

A-11 Canister half - Pass Details

Date: 18 May 2021
Orbit: 1527 x 1681 km, 47.3° (Epoch: 22 June)

Event Time Altitude Azimuth Distance (km) Brightness Sun altitude
Rises 07:16:16 0° 225° (SW) 4,682 11.2 27.8°
Reaches altitude 10° 07:19:18 10° 222° (SW) 3,713 10.7 28.4°
Maximum altitude 07:28:30 63° 145° (SE) 1,730 10.1 30.1°
Drops below altitude 10° 07:38:02 10° 67° (ENE) 3,834 12.3 31.8°
Sets 07:41:13 0° 65° (ENE) 4,843 12.5 32.4°
